Home > Weather > Venice > Past weeks

Flag for Italy Past Weather in Venice, Italy — Yesterday and Last 2 Weeks

Now
70 °F

Clear.


Feels Like: 70 °F
Forecast: 65 / 86 °F
Wind: 9 mph from Northeast

Location: Venice / Tessera

Current Time: Aug 27, 2016 at 7:07:46 AM

Latest Report: Aug 27, 2016 at 6:20 AM


Visibility: 10 mi

Pressure: 30.09 "Hg

Humidity: 69%

Dew Point: 59 °F

Location of VeniceLocation

Past Weather in Venice — Graph

°F

Venice Temperature Yesterday

Maximum temperature yesterday: 84 °F (at 4:50 PM)
Minimum temperature yesterday: 66 °F (at 6:50 AM)
Average temperature yesterday: 76 °F

High & Low Weather Summary for the Past Weeks

 TemperatureHumidityPressure
High84 °F (Aug 15, 3:20 PM)100% (Aug 21, 6:50 AM)31.07 "Hg (Aug 21, 6:50 AM)
Low59 °F (Aug 13, 6:20 AM)34% (Aug 23, 12:50 PM)29.77 "Hg (Aug 17, 3:20 PM)
Average74 °F67%30.06 "Hg
* Reported Aug 12 5:20 AM — Aug 27 5:50 AM, Venice, Weather by CustomWeather, © 2016

Note: Actual official high and low records may vary slightly from our data, if they occured in-between our weather recording intervals... More about our weather records

Advertising

Venice Weather History for the Previous 24 Hours

Scroll right to see more
 ConditionsComfort  
Time TempWeatherWind HumidityBarometerVisibility
5:50 AM
Sat, Aug 27
72 °FClear.9 mph65%30.12 "Hg10 mi
5:20 AM70 °FClear.9 mph69%30.12 "Hg10 mi
3:50 AM70 °FPassing clouds.8 mph73%30.12 "HgN/A
12:20 AM70 °FClear.2 mph78%30.12 "Hg10 mi
11:50 PM
Fri, Aug 26
72 °FPassing clouds.5 mph73%30.12 "HgN/A
11:20 PM73 °FClear.1 mph69%30.12 "Hg10 mi
10:50 PM73 °FClear.1 mph65%30.12 "Hg10 mi
10:20 PM72 °FPassing clouds.3 mph83%30.09 "HgN/A
9:50 PM73 °FClear.2 mph69%30.09 "Hg10 mi
9:20 PM75 °FClear.1 mph69%30.09 "Hg10 mi
8:50 PM77 °FSunny.1 mph65%30.09 "Hg10 mi
8:20 PM77 °FPassing clouds.5 mph69%30.09 "HgN/A
7:50 PM81 °FPassing clouds.3 mph58%30.07 "HgN/A
7:20 PM82 °FSunny.3 mph51%30.07 "Hg10 mi
6:50 PM82 °FSunny.3 mph45%30.07 "Hg10 mi
6:20 PM82 °FSunny.5 mph45%30.07 "Hg10 mi
5:50 PM82 °FSunny.3 mph42%30.07 "Hg10 mi
5:20 PM84 °FPassing clouds.3 mph40%30.07 "HgN/A
4:50 PM84 °FSunny.3 mph40%30.09 "Hg10 mi
4:20 PM82 °FSunny.3 mph40%30.09 "Hg10 mi
3:50 PM82 °FSunny.5 mph40%30.09 "Hg10 mi
3:20 PM82 °FPassing clouds.6 mph40%30.09 "HgN/A
2:50 PM82 °FPassing clouds.7 mph40%30.09 "HgN/A
2:20 PM81 °FPassing clouds.6 mph42%30.09 "HgN/A
1:50 PM81 °FPassing clouds.8 mph45%30.12 "HgN/A
1:20 PM81 °FPassing clouds.8 mph45%30.09 "HgN/A
12:50 PM81 °FPassing clouds.8 mph42%30.12 "HgN/A
12:20 PM81 °FPassing clouds.9 mph45%30.12 "HgN/A
11:50 AM79 °FPassing clouds.9 mph51%30.12 "HgN/A
11:20 AM79 °FPassing clouds.10 mph48%30.12 "HgN/A
10:50 AM77 °FSunny.13 mph51%30.12 "Hg10 mi
10:20 AM77 °FPassing clouds.12 mph51%30.12 "HgN/A
9:50 AM77 °FSunny.13 mph51%30.12 "Hg10 mi
9:20 AM75 °FSunny.10 mph54%30.12 "Hg10 mi
8:50 AM73 °FSunny.10 mph61%30.12 "Hg10 mi
8:20 AM72 °FPassing clouds.9 mph65%30.09 "HgN/A
7:50 AM70 °FPassing clouds.9 mph69%30.09 "HgN/A
7:20 AM66 °FClear.9 mph78%30.09 "Hg10 mi
Weather by CustomWeather, © 2016

See weather overviewHow to use our weather pages